This is the latest recevied weather packets stored in our database for station/object N4BBA. If no packets are shown the sender has not sent any weather packets the latest 10 day(s).
| Time | Temp. | Humidity | Pressure | Rain* | Wind** | Luminosity | Snow |
|---|---|---|---|---|---|---|---|
| 1777729783 | 11.67° C | 96% | 1012.3 hPa | 1.78 mm | - | 66 W/m² | - |
| 1777729481 | 11.67° C | 96% | 1011.9 hPa | 1.78 mm | - | 69 W/m² | - |
| 1777729177 | 11.67° C | 96% | 1011.7 hPa | 0 mm | - | 57 W/m² | - |
| 1777728874 | 11.67° C | 96% | 1011.8 hPa | 1.27 mm | - | 73 W/m² | - |
| 1777728571 | 11.67° C | 96% | 1011.8 hPa | 1.27 mm | - | 97 W/m² | - |
| 1777728268 | 11.67° C | 96% | 1011.8 hPa | 0 mm | - | 140 W/m² | - |
| 1777727965 | 11.67° C | 96% | 1012.1 hPa | 1.78 mm | - | 127 W/m² | - |
| 1777727662 | 11.67° C | 96% | 1011.8 hPa | 1.78 mm | - | 131 W/m² | - |
| 1777727359 | 11.67° C | 96% | 1012 hPa | 1.27 mm | - | 126 W/m² | - |
| 1777727056 | 11.67° C | 96% | 1011.8 hPa | 1.27 mm | - | 103 W/m² | - |
| 1777726753 | 11.67° C | 96% | 1011.7 hPa | 0 mm | - | 82 W/m² | - |
| 1777726451 | 11.67° C | 96% | 1011.6 hPa | 1.78 mm | - | 89 W/m² | - |
| 1777726147 | 11.67° C | 96% | 1011.8 hPa | 1.78 mm | - | 83 W/m² | - |
| 1777725844 | 11.11° C | 96% | 1011.6 hPa | 0 mm | - | 93 W/m² | - |
| 1777725542 | 11.11° C | 96% | 1011.5 hPa | 1.27 mm | - | 92 W/m² | - |
| 1777725239 | 11.11° C | 96% | 1011.3 hPa | 0 mm | - | 69 W/m² | - |
| 1777724936 | 11.11° C | 96% | 1011.4 hPa | 1.78 mm | - | 54 W/m² | - |
| 1777724632 | 11.11° C | 96% | 1011.3 hPa | 1.78 mm | - | 58 W/m² | - |
| 1777724330 | 11.11° C | 96% | 1011.4 hPa | 1.27 mm | - | 53 W/m² | - |
| 1777724027 | 11.11° C | 96% | 1011.3 hPa | 1.27 mm | - | 49 W/m² | - |
| 1777723725 | 11.11° C | 95% | 1011.1 hPa | 0 mm | - | 37 W/m² | - |
| 1777723421 | 11.11° C | 96% | 1011.1 hPa | 1.78 mm | - | 34 W/m² | - |
| 1777723118 | 11.11° C | 95% | 1011.2 hPa | 1.78 mm | - | 26 W/m² | - |
| 1777722815 | 11.11° C | 95% | 1011.1 hPa | 1.27 mm | - | 21 W/m² | - |
| 1777722512 | 11.11° C | 95% | 1011.3 hPa | 1.27 mm | - | 22 W/m² | - |
* Rain latest hour (hover to see other rain measurements)
** Current wind speed in m/s (hover to see current wind gust speed)